Location: G�kdere
(37.0328°N, 30.9000°E)
Time: 22:36:18
(UTC+00:00)

Ariane Rocket - Pass Details

Date: 03 March 2021
Orbit: 759 x 771 km, 98.7° (Epoch: 19 April)

Event Time Altitude Azimuth Distance (km) Brightness Sun altitude
Exits shadow 18:42:04 38° 293° (WNW) 1,170 4.3 -34.2°
Drops below altitude 10° 18:45:50 10° 332° (NNW) 2,318 6.0 -34.9°
Sets 18:48:16 0° 339° (NNW) 3,248 6.8 -35.3°
